Location: Krakow
(50.0830°N, 19.9170°E)
Time: 17:37:11
(UTC+01:00)

Transit 2A - Pass Details

Date: 08 February 2023
Orbit: 591 x 964 km, 66.7° (Epoch: 21 March)

Event Time Altitude Azimuth Distance (km) Brightness Sun altitude
Rises 23:12:06 0° 323° (NW) 3,459 9.9 -53.7°
Enters shadow 23:12:42 - 324° (NW) 3,239 9.7 -53.8°
Reaches altitude 10° 23:14:34 10° 327° (NNW) 2,566 - -53.8°
Maximum altitude 23:20:32 59° 48° (NE) 1,074 - -54.1°
Drops below altitude 10° 23:26:48 10° 127° (SE) 2,693 - -54.3°
Sets 23:29:26 0° 131° (SE) 3,642 - -54.4°
